Regional Weather Roundup
Issued by NWS

Home | Current Version | Previous Version | Text Only | Print | Product List | Glossary On
Versions: 1 2 3 4 5 6 7 8 9 10 11 12 13 14 15 16 17 18 19 20 21 22 23 24 25 26 27 28 29 30 31 32 33 34 35 36 37 38 39 40 41
000
ASUS42 KFFC 220303
RWRGA
WEATHER ROUNDUP FOR GEORGIA
NATIONAL WEATHER SERVICE PEACHTREE CITY GA
1100 PM EDT TUE OCT 21 2014

NOTE: "FAIR" INDICATES FEW OR NO CLOUDS BELOW 12,000 FEET WITH NO
SIGNIFICANT WEATHER AND/OR OBSTRUCTIONS TO VISIBILITY.

* = USE WITH CAUTION. THE STATIONS MARKED WITH AN ASTERISK MAY NOT
REPORT WEATHER SUCH AS PRECIPITATION, FOG, OR THUNDER AND ARE NOT
QUALITY CONTROLLED BY NWS.

THE REMARK "TC" DENOTES TEMPERATURE READING IN DEGREES CELSIUS.

GAZ001>058-220400-
NORTH GEORGIA

CITY           SKY/WX    TMP DP  RH WIND       PRES   REMARKS
ATLANTA        CLEAR     60  47  61 NW8       30.02R
ATHENS         CLEAR     56  47  71 NW3       30.00R
CHAMBLEE       CLEAR     58  45  62 NW6       30.03R
PEACHTREE CITY CLEAR     53  50  89 N3        30.03R
ROME           CLEAR     52  47  83 N7        30.04R
WEST ATLANTA   CLEAR     53 N/A N/A CALM      30.03R
GAINESVILLE    CLEAR     56  47  71 CALM      30.04R
CARTERSVILLE   CLEAR     52  49  89 SW3       30.04R


CITY           SKY/WX    TMP DP  RH WIND       PRES   REMARKS
DALTON*        CLEAR     54  46  76 N7        30.05S
MARIETTA       CLEAR     58  47  66 NW6       30.03R
KENNESAW*      CLEAR     55  45  67 CALM      30.05R
$$

GAZ059>098-102>109-220400-
CENTRAL GEORGIA

CITY           SKY/WX    TMP DP  RH WIND       PRES   REMARKS
AUGUSTA-BUSH   CLEAR     63  48  58 W8        29.96R
AUGUSTA-DANIEL CLEAR     66  48  52 NW9       29.97R
COLUMBUS       CLEAR     64  54  69 CALM      30.01R
MACON          CLEAR     54  54 100 CALM      30.00R
ROBINS AFB     CLEAR     58  56  92 CALM      29.99R


CITY           SKY/WX    TMP DP  RH WIND       PRES   REMARKS
LAGRANGE*      CLEAR     56  54  92 CALM      30.03S
SYLVANIA*      CLEAR     61  58  88 CALM      29.97R
MILLEDGEVILLE* CLEAR     57  54  88 CALM      30.00R
$$

GAZ099>101-110>166-220400-
SOUTH GEORGIA

CITY           SKY/WX    TMP DP  RH WIND       PRES   REMARKS
SAVANNAH       CLEAR     63  56  78 W5        29.96R
VALDOSTA       CLEAR     56  52  86 S3        30.00R
ALMA           CLEAR     57  54  89 CALM      29.98R
ST SIMONS      CLEAR     64  59  83 W3        29.97R
FT STEWART     CLEAR     60  54  80 CALM      29.96R
ALBANY         CLEAR     59  54  83 CALM      30.02R
HUNTER AFB     CLEAR     63  56  78 W6        29.94R
MOODY AFB      CLEAR     61  54  77 S1        29.99R
BRUNSWICK      CLEAR     59  55  88 W5        29.98R


CITY           SKY/WX    TMP DP  RH WIND       PRES   REMARKS
BAINBRIDGE*    CLEAR     66  55  68 N3        30.01R
MOULTRIE*      CLEAR     61  59  94 CALM      30.01R
VIDALIA*       CLEAR     59  54  82 CALM      29.99R
WAYCROSS*      CLEAR     61  59  91 CALM      29.98S
DOUGLAS*       CLEAR     61  55  82 CALM      30.01R
$$



USA.gov is the U.S. government's official web portal to all federal, state and local government web resources and services.